SCP
-0 0 0 0 0 0 0 0 0 0 0 0 0 0 0 0 0 0 0 0 0 0 0 0 0 0 0 0 0 0 0 0 0 0 0 0 0 0 0 -0 -0 0 0
-0 0 0 0 0 0 0 0 0 0 0 0 0 0 0 0 0 0 0 0 0 0 0 0 0 0 0 0 0 0 0 0 0 0 0 0 0 0 0 0 0 0 0
0 0 0 0 0 0 0 0 0 0 0 0 0 0 0 0 0 0 0 0 0 0 0 0 0 0 0 0 0 0 0 0 0 0 0 0 0 0 0 0 0 0 0
0 0 0 0 0 0 0 0 0 0 0 0 0 0 0 0 0 0 0 0 0 0 0 0 0 0 0 0 0 0 0 0 0 0 0 0 0 0 0 0 0 0 0
0 0 0 0 0 0 0 0 0 0 0 0 0 0 0 0 0 0 0 0 0 0 0 0 0 0 0 0 0 0 0 0 0 0 0 0 0 0 0 0 0 0 0
0 0 0 0 0 0 0 0 0 0 0 0 0 0 0 0 0 0 0 0 0 0 0 0 0 0 0 0 0 0 0 0 0 0 0 0 0 0 0 0 0 0 0
0 0 0 0 0 0 0 0 0 0 0 0 0 0 0 0 0 0 0 0 0 0 0 0 0 0 0 0 0 0 0 0 0 0 0 0 0 0 0 0 0 0 0
0 0 0 0 0 0 0 0 0 0 0 0 0 0 0 0 0 0 0 0 0 0 0 0 0 0 0 0 0 0 0 0 0 0 0 0 0 0 0 0 0 0 0
0 0 0 0 0 0 0 0 0 0 0 0 0 0 0 0 0 0 0 0 0 0 0 0 0 0 0 0 0 0 0 0 0 0 0 0 0 0 0 0 0 1 1
0 0 0 0 0 0 0 0 0 0 0 0 0 0 0 0 0 0 0 0 0 0 0 0 0 0 0 0 0 0 0 0 0 0 0 0 0 0 0 0 0 1 1
0 0 0 0 0 0 0 0 0 0 0 0 0 0 0 0 0 0 0 0 0 0 0 0 0 0 0 0 0 0 0 0 0 0 0 0 0 0 0 0 0 1 1
0 0 0 0 0 0 0 0 0 0 0 0 0 0 0 0 0 0 0 0 0 0 0 0 0 0 0 0 0 0 0 0 0 0 0 0 0 0 0 0 0 1 1
0 0 0 0 0 0 0 0 0 0 0 0 0 0 0 0 0 0 0 0 0 0 0 0 0 0 0 0 0 0 0 0 0 0 0 0 0 0 0 0 0 1 1
0 0 0 0 0 0 0 0 0 0 0 0 0 0 0 0 0 0 0 0 0 0 0 0 0 0 0 0 0 0 0 0 0 0 0 0 0 0 0 0 0 0 1
0 0 0 0 0 0 0 0 0 0 0 0 0 0 0 0 0 0 0 0 0 0 0 0 0 0 0 0 0 0 0 0 0 0 0 0 0 0 0 0 0 0 1
0 0 0 0 0 0 0 0 0 0 0 0 0 0 0 0 0 0 0 0 0 0 0 0 0 0 0 0 0 0 0 0 0 0 0 0 0 0 0 0 0 0 0
0 0 0 0 0 0 0 0 0 0 0 0 0 0 0 0 0 0 0 0 0 0 0 0 0 0 0 0 0 0 0 0 0 0 0 0 0 0 0 0 0 0 0
0 0 0 0 0 0 0 0 0 0 0 0 0 0 0 0 0 0 0 0 0 0 0 0 0 0 0 0 0 0 0 0 0 0 0 0 0 0 0 0 0 0 0
0 0 0 0 0 0 0 0 0 0 0 0 0 0 0 0 0 0 0 0 0 0 0 0 0 0 0 0 0 0 0 0 0 0 0 0 0 0 0 0 0 0 0
0 0 0 0 0 0 0 0 0 0 0 0 0 0 0 0 0 0 0 0 0 0 0 0 0 0 0 0 0 -0 0 0 0 0 0 0 0 0 0 0 0 0 0
0 0 0 0 0 0 0 0 0 0 0 0 0 0 0 0 0 0 0 0 0 0 0 0 0 0 0 0 0 -0 -0 -0 0 0 0 0 0 0 0 0 0 0 0
0 0 0 0 0 0 0 0 0 0 0 0 0 0 0 0 0 0 0 0 0 0 0 0 0 0 0 0 -0 -0 -0 0 0 0 0 0 -0 -0 -0 -0 0 0 0
0 0 0 0 0 0 0 0 0 0 0 0 0 0 0 0 0 0 0 0 0 0 0 0 0 0 0 0 0 0 0 0 0 0 0 0 -0 -0 -0 -0 0 0 0
0 0 0 0 0 0 0 0 0 0 0 0 0 0 0 0 0 0 0 0 0 0 0 0 0 0 0 0 0 0 0 0 0 0 0 0 -0 -0 -0 -0 0 0 0
0 0 0 0 0 0 0 0 0 0 0 0 0 0 0 0 0 0 0 0 0 0 0 0 0 0 0 0 0 0 0 0 0 0 0 0 0 0 0 0 0 0 0
0 0 0 0 0 0 0 0 0 0 0 0 0 0 0 0 0 0 0 0 0 0 0 0 0 0 0 0 0 0 0 0 0 0 0 0 0 0 0 0 0 0 0
Wind_Speed
5 9 12 12 13 14 15 15 15 14 13 13 12 12 12 11 10 10 9 9 9 9 10 10 10 10 10 10 11 12 11 11 12 11 9 8 8 8 8 7 7 8 6
5 7 11 12 13 14 14 15 16 16 16 16 16 16 16 16 15 15 14 13 11 11 11 11 10 10 9 9 10 11 11 11 11 11 10 9 8 8 8 7 8 7 4
4 6 9 13 13 14 15 16 16 16 16 16 16 16 16 16 16 16 16 15 14 13 13 12 12 11 10 9 10 10 10 10 10 11 11 10 8 6 8 8 8 11 9
5 7 9 11 13 14 15 16 16 16 16 16 16 16 16 16 16 16 16 15 15 15 14 14 14 13 12 11 11 11 11 10 9 11 9 8 9 5 8 9 9 10 10
7 7 10 11 13 14 15 16 17 17 17 17 16 16 16 16 16 16 16 16 16 16 15 15 15 15 14 13 12 12 12 10 9 12 10 9 9 7 10 11 10 9 10
7 7 10 11 13 14 15 15 16 16 16 16 16 16 16 16 16 16 16 16 16 16 16 16 16 16 16 15 14 13 13 12 12 10 9 9 9 7 11 13 11 9 10
8 7 9 11 12 13 14 15 15 15 15 16 15 15 15 15 15 15 15 15 15 15 15 16 16 16 16 16 15 15 14 13 11 10 10 9 9 9 13 15 14 11 12
8 7 7 11 12 13 13 14 14 14 15 15 15 15 15 14 14 15 15 15 15 15 15 15 15 16 16 16 16 16 15 15 11 11 10 10 9 11 14 16 16 14 14
7 7 6 7 9 11 12 13 13 14 14 14 14 14 14 14 14 14 14 15 15 15 15 15 15 15 16 16 15 15 16 15 12 9 10 9 8 13 16 17 18 17 16
7 7 6 6 6 7 8 11 12 13 13 13 14 13 12 11 12 13 14 15 16 15 15 15 15 15 16 15 15 15 16 14 9 10 8 8 9 14 17 18 19 19 18
8 6 6 7 6 6 6 7 8 10 11 10 10 12 9 8 9 8 12 14 15 15 15 15 16 15 15 12 12 14 13 7 10 8 8 9 12 16 18 19 20 19 19
11 9 7 7 6 6 5 4 4 5 6 7 7 8 7 7 7 8 10 12 13 13 13 13 14 12 10 8 9 10 6 10 9 7 7 11 16 18 19 20 21 21 20
12 10 8 7 7 6 4 3 3 3 4 6 8 8 6 6 5 6 5 7 8 9 8 10 9 7 8 8 8 8 9 9 7 7 9 13 17 19 20 21 22 22 22
13 11 9 8 7 6 5 4 3 3 3 4 5 7 6 4 5 5 5 6 6 6 8 8 6 9 10 10 10 10 11 8 8 7 9 14 18 20 21 22 23 24 24
14 13 11 9 8 7 6 4 4 4 4 4 4 5 6 5 5 6 5 5 6 6 7 8 8 10 10 10 9 11 12 12 12 11 9 14 18 21 23 23 24 25 26
16 14 12 10 9 7 5 4 4 3 3 3 3 5 6 5 5 5 6 5 6 6 7 7 9 9 9 9 11 12 13 13 12 13 12 13 17 20 23 24 25 26 28
16 14 13 11 9 8 6 5 3 3 2 2 2 3 4 4 5 5 5 6 6 7 8 7 9 8 9 10 11 12 12 13 13 14 14 12 13 16 21 24 26 27 28
16 15 14 10 10 8 6 4 3 2 1 0 1 2 3 4 5 5 5 6 7 7 6 7 7 8 9 10 11 11 11 12 15 15 14 14 13 12 15 22 24 26 28
18 16 15 13 11 9 7 4 3 2 2 1 2 2 3 4 5 6 5 6 7 6 6 6 7 8 10 11 11 12 12 12 13 14 15 16 16 15 14 18 22 24 28
18 16 15 13 12 9 6 4 3 3 3 3 3 3 4 4 6 6 6 7 7 6 6 6 8 8 9 10 13 13 12 13 13 13 15 14 14 16 17 17 15 16 24
18 17 16 14 12 9 6 5 4 3 3 3 3 5 5 5 6 7 7 7 7 6 7 8 8 9 8 8 10 12 13 12 13 11 11 12 14 15 16 17 15 15 13
21 19 17 15 13 11 7 4 3 2 3 3 4 5 6 6 7 6 8 7 7 6 7 7 7 6 6 5 7 11 13 12 6 9 11 12 14 14 15 16 16 17 16
23 21 16 16 14 13 10 6 4 3 3 4 5 4 5 6 7 8 9 8 7 7 6 7 7 8 8 7 5 5 9 12 16 11 13 14 14 13 14 14 17 18 19
23 19 19 17 15 13 12 9 9 6 6 5 3 4 6 7 8 8 9 9 8 6 7 7 7 8 9 9 6 7 9 10 11 16 12 11 15 17 18 16 18 19 20
21 19 18 18 16 15 13 12 10 9 7 5 5 7 8 7 8 8 9 8 8 7 8 9 9 9 8 10 9 8 10 11 14 13 21 21 17 16 17 18 17 17 19
20 19 18 19 18 16 15 14 12 11 9 8 8 7 7 6 7 8 8 8 8 8 9 10 10 12 11 13 12 11 11 12 11 14 18 23 22 18 18 17 18 17 17
Wind_Direction
18 2 8 26 41 48 53 55 56 56 55 53 50 46 42 36 31 25 20 15 9 1 358 2 2 359 355 350 344 341 340 341 341 326 302 287 282 282 281 272 257 247 218
9 16 29 38 49 53 56 57 56 55 55 53 52 50 47 44 42 39 34 26 15 4 355 351 352 354 355 349 340 335 332 334 338 334 312 282 260 266 277 274 254 271 225
47 42 51 48 54 57 58 58 58 57 55 53 52 50 48 45 43 41 38 32 25 17 8 359 352 351 352 347 339 332 328 326 328 335 313 279 265 244 265 272 251 255 249
74 62 57 54 59 61 60 59 58 56 55 53 51 50 47 44 42 38 35 31 25 20 14 9 5 360 355 347 339 334 329 322 317 319 300 287 280 262 266 269 259 251 248
86 73 68 63 65 64 63 60 58 57 55 53 51 49 47 44 40 35 31 28 23 19 14 11 7 4 360 353 344 334 329 325 315 299 297 294 284 276 273 271 262 249 245
93 80 75 67 70 68 65 63 60 57 55 52 50 47 44 42 38 33 28 25 21 17 13 9 5 3 359 354 348 341 334 331 312 301 299 293 287 282 276 273 265 249 242
106 86 81 70 70 68 66 63 60 57 54 51 48 44 40 38 36 31 25 21 16 12 8 5 2 360 357 353 349 346 344 335 307 297 294 291 289 300 284 276 268 254 243
113 102 89 77 72 69 66 64 61 57 53 50 46 42 38 35 33 28 21 17 12 7 3 359 357 355 353 350 348 347 345 334 308 290 285 284 290 291 284 278 271 261 249
121 115 107 98 85 76 71 67 65 61 56 52 46 41 37 34 31 26 19 13 9 3 359 354 351 348 346 343 342 343 340 328 301 285 281 277 285 286 285 281 275 265 253
136 128 121 111 102 92 81 73 69 65 60 55 49 42 37 34 31 25 18 11 6 1 356 351 347 343 340 334 336 337 330 309 304 299 286 278 278 280 284 283 278 271 259
155 146 133 125 116 108 95 85 78 69 59 53 46 39 34 28 25 20 17 8 4 359 353 350 345 339 332 325 329 330 315 318 316 298 290 301 296 283 280 280 278 274 265
171 161 149 138 131 128 113 103 88 77 64 54 44 34 30 27 19 11 6 4 360 353 347 347 342 335 332 327 327 323 319 318 302 292 290 303 297 290 283 278 276 274 268
174 166 158 148 143 140 131 115 99 84 70 57 45 34 28 25 15 9 360 356 352 348 348 341 339 340 333 325 319 317 314 310 302 299 292 296 293 290 286 280 275 272 269
179 171 163 157 151 145 140 126 111 95 76 62 49 35 25 22 14 5 359 349 346 344 339 337 330 330 323 317 311 308 306 301 299 298 291 291 291 288 284 280 276 271 268
183 175 171 167 161 157 149 139 119 101 82 68 49 38 24 17 8 359 348 342 338 337 334 330 328 325 320 315 310 306 302 298 292 289 287 286 287 286 282 277 273 270 267
186 178 172 173 169 164 155 140 124 105 88 67 51 34 21 8 357 344 334 330 331 333 328 321 322 318 315 312 307 305 299 294 288 285 284 285 280 279 279 276 271 267 266
186 178 177 175 174 169 154 140 128 111 93 66 42 19 7 355 341 331 321 320 327 324 320 316 318 315 312 311 308 304 297 290 287 284 282 280 280 275 272 272 270 266 263
187 182 180 178 178 173 163 154 147 137 130 52 345 334 333 331 325 319 313 312 319 315 313 317 319 321 316 313 309 306 298 291 285 281 277 274 274 275 274 270 269 267 263
189 184 183 182 180 174 169 171 171 189 225 258 274 284 298 304 309 308 302 302 308 305 306 311 317 318 314 313 309 302 295 289 286 281 276 274 271 271 272 273 269 264 262
192 188 186 183 182 175 174 180 193 214 229 244 257 262 275 287 302 304 292 293 298 293 298 308 312 311 307 308 307 298 293 287 280 277 277 275 272 271 270 271 270 263 254
194 192 190 187 184 179 178 187 196 208 222 241 248 254 266 285 297 294 288 288 286 286 297 304 309 312 312 320 312 309 298 283 282 279 279 280 278 276 273 271 271 268 263
197 195 193 192 188 187 184 175 183 206 248 260 258 254 264 280 286 286 282 282 285 287 293 302 312 310 308 329 325 320 318 312 295 305 298 289 285 282 277 274 271 269 267
200 198 194 193 190 188 181 173 180 212 240 237 235 243 259 277 281 278 277 279 281 286 290 300 304 300 299 302 290 296 307 308 320 292 290 285 282 281 281 282 281 280 276
201 197 197 194 192 188 182 187 195 208 224 237 263 279 286 285 283 280 280 282 284 285 289 294 294 291 290 290 288 250 252 277 295 304 295 288 294 286 281 278 276 275 273
198 197 198 196 194 188 188 192 199 216 231 246 259 273 282 285 282 281 282 285 287 288 289 290 288 282 275 276 275 273 267 262 257 268 289 293 284 277 277 274 271 269 267
196 197 199 199 196 191 191 194 202 213 223 236 246 259 270 276 279 276 279 281 284 285 287 288 286 280 274 271 269 264 262 260 258 258 271 284 287 284 282 278 272 267 264